Theta_e
318 318 319 318 317 317 317 317 316 316 316 316 315 315 315 315 316 317 318 317 318 318 318 319 320 321 313 301 300 313 336 330 316 313 308 303 299 296 294 294 296 294 296 298 299 298 296
318 318 318 317 315 316 317 317 316 315 315 315 315 314 314 314 315 316 317 317 317 317 317 319 320 321 304 295 307 313 315 312 311 308 307 303 302 300 296 293 293 296 296 297 298 298 297
317 317 317 315 314 314 314 315 315 315 314 314 314 314 314 314 315 316 316 316 316 316 317 319 321 317 304 302 311 312 311 306 310 311 306 305 304 301 298 294 296 295 294 296 297 298 297
317 317 316 315 314 314 313 313 313 314 314 314 313 313 313 313 314 315 315 315 315 316 318 319 321 312 300 309 312 310 311 310 311 311 310 308 305 301 297 298 298 293 291 288 295 297 298
316 316 315 315 314 313 313 313 313 313 313 313 313 312 312 313 313 314 314 314 318 318 319 321 311 306 300 315 308 308 310 306 305 305 305 310 303 298 298 293 290 292 286 287 292 296 297
316 316 315 315 314 313 313 313 313 313 312 313 312 311 311 312 313 313 313 313 319 318 318 319 314 301 304 302 308 305 306 306 303 303 303 301 296 293 291 290 285 288 287 288 288 293 296
316 316 316 315 315 314 313 313 312 312 312 312 312 311 311 311 312 312 308 303 301 299 304 299 300 301 304 309 311 304 305 305 304 301 294 297 293 289 292 293 293 293 291 289 291 295 293
317 316 316 315 314 312 313 312 312 312 312 311 311 311 311 311 312 312 304 303 302 302 298 303 302 305 308 309 304 306 306 299 299 294 296 293 289 295 297 296 294 293 290 289 293 296 293
317 316 315 314 313 312 312 311 311 311 311 310 310 310 310 311 311 304 302 304 306 303 295 301 304 303 303 306 302 302 303 299 296 293 293 290 294 299 297 295 294 291 290 290 290 293 294
317 316 315 313 312 312 311 310 311 311 310 309 309 309 310 310 303 299 304 307 305 304 294 300 302 301 301 300 299 305 305 301 296 293 294 291 297 297 295 294 294 288 294 294 293 290 285
317 315 314 313 311 311 311 310 310 310 310 309 309 309 309 310 299 301 304 305 305 308 284 301 299 303 301 298 299 303 305 301 294 294 294 291 294 293 292 293 295 292 297 294 294 289 286
316 315 314 313 311 310 310 309 310 309 309 308 309 309 309 304 300 305 306 303 308 295 285 298 300 297 298 301 301 302 302 302 300 295 294 292 297 295 293 296 296 298 295 291 289 285 279
316 314 313 312 310 310 310 309 309 309 308 308 308 308 306 307 297 303 304 303 292 287 299 295 295 296 296 296 298 297 295 293 290 287 286 290 291 295 297 291 294 294 287 278 280 279 279
315 313 312 311 310 310 309 308 308 308 308 307 307 307 307 309 306 307 302 297 286 294 294 300 297 295 294 296 295 296 293 290 293 290 286 284 283 291 296 291 288 289 288 279 272 275 280
315 313 311 310 309 309 308 308 307 307 307 306 305 304 306 309 310 303 298 287 290 294 298 296 294 291 291 295 294 293 292 291 292 291 286 284 286 293 296 295 295 292 288 291 281 280 280
315 312 310 309 308 308 308 308 308 307 306 305 297 302 306 307 307 302 294 291 293 300 299 297 289 292 288 291 290 290 291 296 296 296 292 288 283 291 294 298 297 294 297 285 283 273 278
313 311 308 308 308 307 307 307 307 307 306 304 298 301 307 308 304 298 291 291 296 301 300 295 291 290 292 291 291 290 293 297 299 294 292 289 286 288 290 290 290 290 288 289 287 283 278
312 310 307 307 307 307 307 307 307 306 304 297 293 293 305 305 295 292 293 297 299 299 301 299 296 295 292 293 291 291 293 296 300 297 290 290 285 282 286 292 295 297 294 291 287 286 286
311 308 307 307 306 306 306 307 307 306 305 296 290 293 307 303 291 290 294 299 300 298 297 296 294 296 294 291 288 293 296 301 300 297 292 291 285 281 283 286 293 290 292 293 293 290 283
310 307 306 306 306 305 306 307 306 306 305 296 295 294 296 296 293 292 291 294 296 301 298 297 295 296 293 290 292 290 292 299 300 298 305 297 286 284 278 284 288 288 291 293 292 287 287
310 306 306 305 305 305 305 306 306 305 305 298 297 292 293 289 292 292 292 294 294 295 297 297 294 295 292 288 289 289 294 295 297 305 295 293 287 287 289 291 292 292 292 292 290 291 286
309 306 305 305 304 304 304 305 306 305 304 300 295 293 293 291 292 292 292 290 294 295 294 293 292 296 293 290 292 290 292 291 292 294 292 292 286 287 287 292 292 291 294 295 294 294 293
307 306 305 305 304 304 304 305 305 305 300 292 294 296 294 292 291 289 290 293 295 293 295 296 296 293 292 294 296 296 295 295 296 293 291 289 287 285 284 290 290 287 293 295 294 295 293
307 307 306 305 304 303 303 304 305 305 301 294 292 292 291 287 292 293 294 295 294 294 291 296 296 292 297 300 298 296 293 294 294 293 294 288 287 288 285 287 281 291 299 299 297 297 297
306 306 306 305 304 303 303 303 304 304 305 293 291 292 292 287 292 292 293 294 295 294 294 295 299 299 299 296 290 286 286 289 292 294 292 292 290 290 285 284 289 293 297 296 293 292 296
306 306 306 305 304 303 303 303 303 304 305 293 291 291 292 289 286 295 292 292 288 288 291 294 298 298 298 293 288 282 279 286 287 291 295 294 292 289 287 284 277 289 298 301 297 286 296
305 306 305 305 303 303 303 303 303 303 304 295 291 292 292 289 293 294 290 289 293 290 288 290 295 294 295 288 286 283 283 291 284 286 287 287 287 285 283 286 289 295 298 299 285 287 295
305 305 304 303 303 303 303 302 303 303 304 295 292 293 292 289 292 296 298 293 291 291 287 292 290 289 290 286 286 286 285 288 286 289 287 286 285 284 285 283 282 296 295 289 292 295 298
303 303 303 303 303 303 301 301 302 303 303 298 289 295 295 289 291 296 298 300 300 298 294 292 289 291 291 288 286 286 285 286 284 282 290 283 288 285 287 287 293 294 293 296 296 296 297
Wind_Speed
19 20 20 21 21 21 20 20 20 20 19 19 20 20 19 18 17 15 14 13 11 10 9 10 11 12 2 3 3 4 7 6 2 2 3 2 5 3 2 2 4 1 1 4 7 9 7
19 20 20 21 21 21 20 20 20 20 19 19 19 19 20 19 18 16 15 13 11 9 9 9 9 11 2 1 2 6 4 2 1 1 1 2 2 3 3 1 2 3 3 8 7 5 3
20 20 20 21 21 22 22 21 21 20 20 20 20 20 19 19 19 18 16 15 11 10 7 6 6 3 3 7 2 5 1 1 2 3 3 3 4 3 4 3 1 2 5 5 2 4 4
20 21 21 21 22 22 22 23 23 21 21 21 21 21 20 21 20 19 19 17 15 9 5 4 2 0 4 2 2 4 1 4 4 4 3 4 4 5 3 1 6 4 5 4 5 6 3
20 21 20 20 21 20 21 21 22 22 22 22 22 22 21 22 22 21 18 19 6 5 3 4 1 1 5 5 2 2 4 2 3 2 1 4 4 4 5 4 6 6 0 1 7 3 2
18 18 19 18 18 18 20 21 21 21 23 23 23 23 23 23 23 20 20 4 4 6 1 2 1 2 3 1 4 2 4 3 3 2 4 7 6 4 4 5 2 2 2 4 4 3 4
16 17 17 19 20 20 20 21 22 22 23 25 24 24 24 23 23 19 7 2 5 4 3 4 3 2 4 6 3 2 0 3 3 9 4 4 6 1 4 7 4 4 3 3 5 4 3
16 16 18 19 21 21 21 22 23 24 25 25 25 25 25 24 22 18 1 5 2 3 6 2 3 4 5 1 3 4 2 2 4 3 2 7 1 4 5 2 4 3 2 4 6 4 3
15 17 18 19 20 20 21 22 23 24 26 26 26 26 26 24 24 3 2 4 4 3 3 7 4 3 3 6 4 5 3 2 3 3 4 4 5 5 4 2 3 2 3 3 5 3 3
14 16 18 18 19 20 23 24 24 25 26 27 26 26 25 27 2 4 2 6 6 3 5 4 2 1 3 2 2 2 2 3 4 3 3 2 5 6 5 3 3 2 1 3 4 4 3
13 15 16 17 19 20 22 25 26 27 27 28 27 24 21 9 2 2 4 7 3 5 3 2 1 1 6 2 1 9 4 4 3 2 7 6 5 7 7 5 3 6 4 2 2 1 2
14 15 16 17 19 21 22 24 26 27 29 30 29 25 16 2 1 6 7 5 4 7 1 2 3 5 5 7 6 5 7 7 3 4 5 3 5 3 3 4 2 5 1 5 4 3 3
13 14 16 17 19 20 22 24 26 27 29 32 32 27 7 1 1 5 4 5 6 5 3 5 3 4 4 6 7 5 5 8 4 5 7 7 4 5 4 6 5 10 7 5 7 6 5
11 13 14 16 18 19 21 24 26 27 30 32 34 21 4 3 3 5 4 6 2 1 1 1 4 4 5 5 3 4 2 3 4 5 3 5 8 5 7 1 3 4 3 6 4 2 6
10 13 15 17 19 20 21 23 26 27 30 31 27 4 2 3 2 2 7 4 6 3 1 2 3 5 5 5 3 4 3 2 1 2 3 4 5 4 3 2 2 1 4 3 6 2 2
8 11 13 15 18 20 21 23 26 27 29 29 5 5 4 7 3 5 6 4 2 2 3 3 2 2 2 3 3 3 2 4 1 2 3 2 3 1 6 3 3 5 5 4 4 3 4
6 8 11 13 15 18 21 22 24 27 29 23 3 4 3 7 3 6 4 5 4 1 3 3 3 3 3 2 1 1 2 3 4 2 3 3 4 6 3 1 2 4 3 5 4 4 3
6 7 9 12 14 17 19 20 22 24 28 9 4 3 4 2 5 1 2 4 2 3 4 2 4 2 3 3 0 0 2 3 3 1 1 1 4 4 6 5 3 2 3 4 3 2 3
4 6 8 10 13 15 16 19 20 21 19 3 3 4 4 3 3 1 4 2 2 4 3 3 3 2 2 4 1 3 2 4 4 4 2 5 1 4 9 6 5 1 2 4 3 3 4
4 4 7 9 11 14 15 17 19 19 20 3 3 5 6 6 2 3 3 2 2 3 3 4 3 3 3 1 1 2 1 2 3 1 6 6 3 7 7 8 3 5 4 4 5 3 3
7 4 5 7 10 12 15 16 18 20 19 1 2 2 2 4 3 3 1 2 1 1 1 2 2 3 5 3 1 3 2 3 3 4 3 5 3 4 6 10 4 10 12 10 8 6 6
6 5 4 5 7 9 12 16 17 21 16 2 2 2 3 2 3 3 3 2 1 5 5 3 5 5 3 6 8 7 5 4 6 1 3 2 2 2 5 3 2 8 7 5 4 4 7
5 6 5 5 6 9 11 13 15 17 10 2 2 2 2 2 2 1 2 1 0 2 1 3 5 4 3 7 7 9 8 7 7 9 6 4 5 2 5 3 6 5 7 6 4 5 5
7 7 6 5 5 7 10 11 12 13 7 1 1 0 2 3 1 2 2 2 3 2 2 3 3 4 1 5 4 2 3 5 7 8 8 6 6 4 4 3 3 6 2 2 5 8 7
9 9 7 6 4 5 7 9 10 10 11 2 1 1 1 2 2 4 3 4 6 4 1 1 3 1 3 5 4 6 6 5 1 2 7 6 5 3 2 3 5 6 2 3 3 8 7
11 10 8 6 5 5 6 7 9 9 9 2 1 1 1 3 3 0 1 1 2 3 5 3 4 3 5 3 3 1 3 3 4 2 8 6 4 3 2 3 5 6 4 3 3 6 5
12 12 8 7 5 5 5 6 8 9 9 2 2 0 2 1 4 3 3 2 2 2 1 3 6 6 3 2 2 4 4 3 3 2 4 4 2 6 2 3 7 4 7 3 1 7 5
10 9 8 6 5 5 6 5 7 8 8 2 3 1 3 2 5 5 3 3 1 2 1 3 2 2 3 2 3 3 3 2 2 3 3 6 6 5 3 4 7 3 4 1 4 6 6
10 9 8 7 7 7 6 6 6 6 7 4 2 2 1 3 5 2 5 5 6 7 5 2 1 1 4 4 1 1 1 1 2 3 3 2 6 4 7 6 4 3 2 7 3 6 8
Wind_Direction
30 27 21 18 16 12 10 7 5 2 0 358 355 352 350 347 341 335 330 328 325 312 302 304 313 322 344 22 256 317 88 93 92 3 41 51 55 97 50 308 346 134 248 261 263 271 246
24 24 20 18 15 11 7 5 1 358 356 353 351 346 343 341 336 331 327 321 313 310 299 300 313 315 18 114 282 341 126 105 194 18 321 146 170 144 99 5 138 299 287 286 281 327 251
23 21 19 17 13 11 4 2 358 354 352 349 346 342 340 338 333 330 328 319 311 302 291 289 309 329 71 224 20 14 125 258 174 168 291 230 160 112 129 348 259 307 335 332 312 338 309
20 18 16 14 11 8 -0 357 356 352 348 347 343 339 338 337 334 331 329 320 309 279 253 262 278 219 243 257 323 316 85 317 252 216 217 273 126 102 62 286 15 50 44 44 301 343 323
20 17 14 12 9 360 354 352 351 349 346 343 341 336 336 335 335 332 328 323 337 141 157 152 124 116 280 309 289 285 147 236 257 48 39 79 64 82 29 52 13 9 40 228 325 339 329
18 13 11 7 2 355 352 349 349 347 344 341 339 334 334 332 332 332 325 268 79 117 132 181 270 58 304 267 298 255 190 233 30 30 55 44 48 59 38 65 208 262 356 323 286 279 16
5 8 5 1 359 355 351 349 346 345 343 338 338 334 330 331 329 331 337 83 18 353 60 193 218 239 273 276 300 280 89 80 33 60 40 5 66 255 252 214 200 139 189 246 268 278 359
3 4 4 360 357 355 351 348 344 343 340 336 336 334 330 329 326 325 252 76 120 206 318 263 234 268 259 148 325 303 79 46 54 32 4 24 340 240 278 185 171 182 201 273 281 268 143
358 359 0 358 354 353 351 348 344 342 338 334 335 333 330 330 320 349 5 80 323 156 87 301 198 201 222 133 214 276 114 115 63 30 23 141 268 312 293 244 144 189 161 257 245 316 303
355 356 357 354 351 351 350 347 343 340 336 331 333 334 334 328 17 320 67 335 333 162 67 293 315 324 107 192 18 93 70 104 19 14 352 283 319 4 24 56 55 340 330 253 268 24 280
355 355 353 353 351 349 346 344 342 340 336 331 333 335 336 346 264 69 311 328 315 57 78 255 6 349 344 112 337 358 353 31 20 27 63 282 4 2 26 327 316 239 356 10 327 122 44
352 351 350 352 352 349 345 344 342 339 335 330 332 334 336 70 74 256 317 317 57 49 184 348 36 340 51 17 16 356 21 36 58 77 22 301 288 54 313 303 11 293 12 42 52 78 38
344 346 350 352 352 348 345 344 342 340 335 332 332 331 311 165 255 322 321 47 45 118 335 329 13 3 80 21 14 39 29 22 49 36 358 338 339 321 25 360 358 40 47 347 357 6 230
338 343 349 349 350 349 346 344 341 341 337 334 328 320 212 233 287 338 51 53 136 195 85 326 42 55 78 5 44 4 64 36 30 70 77 47 333 13 324 178 248 359 108 147 215 265 291
338 342 348 350 351 350 348 344 341 342 338 335 323 325 305 275 217 106 71 68 194 211 151 50 56 73 7 1 58 65 25 167 170 77 79 50 290 321 293 290 117 112 48 153 103 18 345
334 342 347 349 350 350 349 345 341 342 341 339 329 337 290 321 144 61 76 206 207 225 110 70 115 108 127 330 48 46 13 346 76 39 122 152 327 311 289 19 24 91 156 33 12 27 301
319 339 345 347 349 351 348 346 344 343 344 335 6 12 259 340 73 50 140 217 221 115 127 124 157 125 147 126 209 40 352 11 19 29 79 119 117 286 324 108 166 0 34 59 116 134 195
318 335 343 346 348 349 347 344 346 347 347 41 351 338 304 29 53 59 151 201 247 149 65 76 105 130 144 149 62 148 154 146 13 299 324 64 140 271 248 278 287 277 155 121 122 251 226
307 329 338 345 346 347 346 342 347 349 358 346 352 271 311 62 126 311 302 288 217 145 177 143 146 156 151 169 129 200 192 156 50 25 189 181 5 350 348 353 9 358 314 138 106 61 218
289 310 327 339 346 345 348 343 344 349 349 100 18 337 323 39 38 112 31 295 314 357 140 114 115 85 107 122 76 208 221 204 316 297 114 104 134 161 188 228 183 292 265 248 186 189 224
241 259 297 334 340 345 350 344 349 349 351 57 39 281 193 321 6 5 210 296 308 263 48 112 40 162 155 160 307 248 228 312 323 141 81 117 201 182 244 254 240 260 268 273 194 207 188
244 254 287 316 341 345 346 351 353 354 349 48 346 21 353 290 310 300 359 82 1 313 164 225 164 188 167 164 192 217 197 192 227 187 129 8 241 189 288 281 238 266 266 251 208 212 247
243 266 282 311 337 342 346 353 359 4 6 31 340 306 118 278 341 114 225 284 134 326 302 188 164 140 187 235 220 232 205 203 196 170 181 167 150 107 261 323 323 315 223 220 255 248 217
266 262 267 284 317 335 343 348 356 8 56 216 277 106 65 279 321 254 342 327 269 299 245 327 107 154 299 336 328 322 262 232 216 228 168 166 145 162 251 16 262 243 267 243 234 264 246
262 265 262 274 295 315 326 340 344 0 4 125 266 107 115 271 242 298 311 301 317 315 246 273 36 356 305 41 13 351 337 356 121 134 203 158 147 196 194 205 291 300 249 226 201 280 261
261 264 258 265 274 289 311 326 330 346 359 86 249 159 111 111 257 328 317 334 303 332 341 310 333 316 63 83 78 228 257 280 309 116 34 80 89 136 142 223 229 242 284 323 125 291 283
265 261 253 256 264 280 292 310 323 334 349 99 272 193 110 174 266 197 203 208 109 90 243 304 336 1 32 102 148 184 249 237 270 293 166 98 107 206 163 259 280 241 299 315 148 250 298
261 257 250 246 257 267 281 303 315 325 340 76 259 316 121 209 273 215 237 172 112 87 160 297 3 356 35 107 150 219 203 266 326 267 193 169 152 201 152 204 273 358 355 296 231 292 273
258 256 248 242 239 240 261 282 301 314 333 92 309 309 22 170 251 285 253 239 184 176 137 271 213 237 211 100 130 100 269 339 166 272 331 256 179 191 181 222 249 338 252 267 244 247 279